Time,TemperatureF,DewpointF,PressureIn,WindDirection,WindDirectionDegrees,WindSpeedMPH,WindSpeedGustMPH,Humidity,HourlyPrecipIn,Conditions,Clouds,dailyrainin,SoftwareType,DateUTC
2013-06-02 00:00:00,77.2,67.9,30.01,WNW,293,2.0,-999.0,73,0.00,,,0.00,Wunderground v.1.15,2013-06-02 04:00:00,
2013-06-02 00:05:00,77.2,67.9,30.01,WNW,293,2.0,-999.0,73,0.00,,,0.00,Wunderground v.1.15,2013-06-02 04:05:00,
2013-06-02 00:10:00,77.2,67.9,30.01,WNW,293,2.0,-999.0,73,0.00,,,0.00,Wunderground v.1.15,2013-06-02 04:10:00,
2013-06-02 00:15:00,77.2,67.9,30.01,WNW,293,2.0,-999.0,73,0.00,,,0.00,Wunderground v.1.15,2013-06-02 04:15:00,
2013-06-02 00:20:00,77.2,67.9,30.01,WNW,293,2.0,-999.0,73,0.00,,,0.00,Wunderground v.1.15,2013-06-02 04:20:00,
2013-06-02 00:25:00,77.2,67.9,30.01,WNW,293,2.0,-999.0,73,0.00,,,0.00,Wunderground v.1.15,2013-06-02 04:25:00,
2013-06-02 00:30:00,77.2,67.9,30.01,WNW,293,2.0,-999.0,73,0.00,,,0.00,Wunderground v.1.15,2013-06-02 04:30:00,
2013-06-02 00:35:00,77.2,67.9,30.01,WNW,293,2.0,-999.0,73,0.00,,,0.00,Wunderground v.1.15,2013-06-02 04:35:00,
2013-06-02 00:40:00,77.2,67.9,30.01,WNW,293,2.0,-999.0,73,0.00,,,0.00,Wunderground v.1.15,2013-06-02 04:40:00,
2013-06-02 00:45:00,76.4,67.9,30.01,West,270,3.0,-999.0,75,0.00,,,0.00,Wunderground v.1.15,2013-06-02 04:45:00,
2013-06-02 00:50:00,76.4,67.9,30.01,West,270,3.0,-999.0,75,0.00,,,0.00,Wunderground v.1.15,2013-06-02 04:50:00,
2013-06-02 00:55:00,76.4,67.9,30.01,West,270,3.0,-999.0,75,0.00,,,0.00,Wunderground v.1.15,2013-06-02 04:55:00,
2013-06-02 01:00:00,76.4,67.9,30.01,West,270,3.0,-999.0,75,0.00,,,0.00,Wunderground v.1.15,2013-06-02 05:00:00,
2013-06-02 01:05:00,76.4,67.9,30.01,West,270,3.0,-999.0,75,0.00,,,0.00,Wunderground v.1.15,2013-06-02 05:05:00,
2013-06-02 01:10:00,76.4,67.9,30.01,West,270,3.0,-999.0,75,0.00,,,0.00,Wunderground v.1.15,2013-06-02 05:10:00,
2013-06-02 01:15:00,75.6,67.9,30.01,West,270,2.0,-999.0,77,0.00,,,0.00,Wunderground v.1.15,2013-06-02 05:15:00,
2013-06-02 01:20:00,75.6,67.9,30.01,West,270,2.0,-999.0,77,0.00,,,0.00,Wunderground v.1.15,2013-06-02 05:20:00,
2013-06-02 01:25:00,75.6,67.9,30.01,West,270,2.0,-999.0,77,0.00,,,0.00,Wunderground v.1.15,2013-06-02 05:25:00,
2013-06-02 01:30:00,75.6,67.9,30.01,West,270,2.0,-999.0,77,0.00,,,0.00,Wunderground v.1.15,2013-06-02 05:30:00,
2013-06-02 01:35:00,75.6,67.9,30.01,West,270,2.0,-999.0,77,0.00,,,0.00,Wunderground v.1.15,2013-06-02 05:35:00,
2013-06-02 01:40:00,75.6,67.9,30.01,West,270,2.0,-999.0,77,0.00,,,0.00,Wunderground v.1.15,2013-06-02 05:40:00,
2013-06-02 01:45:00,75.4,67.7,29.99,WNW,293,3.0,-999.0,77,0.00,,,0.00,Wunderground v.1.15,2013-06-02 05:45:00,
2013-06-02 01:50:00,75.4,67.7,29.99,WNW,293,3.0,-999.0,77,0.00,,,0.00,Wunderground v.1.15,2013-06-02 05:50:00,
2013-06-02 01:55:00,75.4,67.7,29.99,WNW,293,3.0,-999.0,77,0.00,,,0.00,Wunderground v.1.15,2013-06-02 05:55:00,
2013-06-02 02:00:00,75.4,67.7,29.99,WNW,293,3.0,-999.0,77,0.00,,,0.00,Wunderground v.1.15,2013-06-02 06:00:00,
2013-06-02 02:05:00,75.4,67.7,29.99,WNW,293,3.0,-999.0,77,0.00,,,0.00,Wunderground v.1.15,2013-06-02 06:05:00,
2013-06-02 02:10:00,75.4,67.7,29.99,WNW,293,3.0,-999.0,77,0.00,,,0.00,Wunderground v.1.15,2013-06-02 06:10:00,
2013-06-02 02:15:00,74.6,66.9,29.98,West,270,3.0,-999.0,77,0.00,,,0.00,Wunderground v.1.15,2013-06-02 06:15:00,
2013-06-02 02:20:00,74.6,66.9,29.98,West,270,3.0,-999.0,77,0.00,,,0.00,Wunderground v.1.15,2013-06-02 06:20:00,
2013-06-02 02:25:00,74.6,66.9,29.98,West,270,3.0,-999.0,77,0.00,,,0.00,Wunderground v.1.15,2013-06-02 06:25:00,
2013-06-02 02:30:00,74.6,66.9,29.98,West,270,3.0,-999.0,77,0.00,,,0.00,Wunderground v.1.15,2013-06-02 06:30:00,
2013-06-02 02:35:00,74.6,66.9,29.98,West,270,3.0,-999.0,77,0.00,,,0.00,Wunderground v.1.15,2013-06-02 06:35:00,
2013-06-02 02:40:00,74.6,66.9,29.98,West,270,3.0,-999.0,77,0.00,,,0.00,Wunderground v.1.15,2013-06-02 06:40:00,
2013-06-02 02:45:00,74.3,67.7,29.96,WNW,293,2.0,-999.0,80,0.00,,,0.00,Wunderground v.1.15,2013-06-02 06:45:00,
2013-06-02 02:50:00,74.3,67.7,29.96,WNW,293,2.0,-999.0,80,0.00,,,0.00,Wunderground v.1.15,2013-06-02 06:50:00,
2013-06-02 02:55:00,74.3,67.7,29.96,WNW,293,2.0,-999.0,80,0.00,,,0.00,Wunderground v.1.15,2013-06-02 06:55:00,
2013-06-02 03:00:00,74.3,67.7,29.96,WNW,293,2.0,-999.0,80,0.00,,,0.00,Wunderground v.1.15,2013-06-02 07:00:00,
2013-06-02 03:05:00,74.3,67.7,29.96,WNW,293,2.0,-999.0,80,0.00,,,0.00,Wunderground v.1.15,2013-06-02 07:05:00,
2013-06-02 03:10:00,74.3,67.7,29.96,WNW,293,2.0,-999.0,80,0.00,,,0.00,Wunderground v.1.15,2013-06-02 07:10:00,
2013-06-02 03:15:00,73.5,67.3,29.97,WNW,293,2.0,-999.0,81,0.00,,,0.00,Wunderground v.1.15,2013-06-02 07:15:00,
2013-06-02 03:20:00,73.5,67.3,29.97,WNW,293,2.0,-999.0,81,0.00,,,0.00,Wunderground v.1.15,2013-06-02 07:20:00,
2013-06-02 03:25:00,73.5,67.3,29.97,WNW,293,2.0,-999.0,81,0.00,,,0.00,Wunderground v.1.15,2013-06-02 07:25:00,
2013-06-02 03:30:00,73.5,67.3,29.97,WNW,293,2.0,-999.0,81,0.00,,,0.00,Wunderground v.1.15,2013-06-02 07:30:00,
2013-06-02 03:35:00,73.5,67.3,29.97,WNW,293,2.0,-999.0,81,0.00,,,0.00,Wunderground v.1.15,2013-06-02 07:35:00,
2013-06-02 03:40:00,73.5,67.3,29.97,WNW,293,2.0,-999.0,81,0.00,,,0.00,Wunderground v.1.15,2013-06-02 07:40:00,
2013-06-02 03:45:00,72.8,66.6,29.98,West,270,3.0,-999.0,81,0.00,,,0.00,Wunderground v.1.15,2013-06-02 07:45:00,
2013-06-02 03:50:00,72.8,66.6,29.98,West,270,3.0,-999.0,81,0.00,,,0.00,Wunderground v.1.15,2013-06-02 07:50:00,
2013-06-02 03:55:00,72.8,66.6,29.98,West,270,3.0,-999.0,81,0.00,,,0.00,Wunderground v.1.15,2013-06-02 07:55:00,
2013-06-02 04:00:00,72.8,66.6,29.98,West,270,3.0,-999.0,81,0.00,,,0.00,Wunderground v.1.15,2013-06-02 08:00:00,
2013-06-02 04:05:00,72.8,66.6,29.98,West,270,3.0,-999.0,81,0.00,,,0.00,Wunderground v.1.15,2013-06-02 08:05:00,
2013-06-02 04:10:00,72.8,66.6,29.98,West,270,3.0,-999.0,81,0.00,,,0.00,Wunderground v.1.15,2013-06-02 08:10:00,
2013-06-02 04:15:00,72.1,66.6,29.97,West,270,4.0,-999.0,83,0.00,,,0.00,Wunderground v.1.15,2013-06-02 08:15:00,
2013-06-02 04:20:00,72.1,66.6,29.97,West,270,4.0,-999.0,83,0.00,,,0.00,Wunderground v.1.15,2013-06-02 08:20:00,
2013-06-02 04:25:00,72.1,66.6,29.97,West,270,4.0,-999.0,83,0.00,,,0.00,Wunderground v.1.15,2013-06-02 08:25:00,
2013-06-02 04:30:00,72.1,66.6,29.97,West,270,4.0,-999.0,83,0.00,,,0.00,Wunderground v.1.15,2013-06-02 08:30:00,
2013-06-02 04:35:00,72.1,66.6,29.97,West,270,4.0,-999.0,83,0.00,,,0.00,Wunderground v.1.15,2013-06-02 08:35:00,
2013-06-02 04:40:00,72.1,66.6,29.97,West,270,4.0,-999.0,83,0.00,,,0.00,Wunderground v.1.15,2013-06-02 08:40:00,
2013-06-02 04:45:00,71.9,66.8,29.97,West,270,2.0,-999.0,84,0.00,,,0.00,Wunderground v.1.15,2013-06-02 08:45:00,
2013-06-02 04:50:00,71.9,66.8,29.97,West,270,2.0,-999.0,84,0.00,,,0.00,Wunderground v.1.15,2013-06-02 08:50:00,
2013-06-02 04:55:00,71.9,66.8,29.97,West,270,2.0,-999.0,84,0.00,,,0.00,Wunderground v.1.15,2013-06-02 08:55:00,
2013-06-02 05:00:00,71.9,66.8,29.97,West,270,2.0,-999.0,84,0.00,,,0.00,Wunderground v.1.15,2013-06-02 09:00:00,
2013-06-02 05:05:00,71.9,66.8,29.97,West,270,2.0,-999.0,84,0.00,,,0.00,Wunderground v.1.15,2013-06-02 09:05:00,
2013-06-02 05:10:00,71.9,66.8,29.97,West,270,2.0,-999.0,84,0.00,,,0.00,Wunderground v.1.15,2013-06-02 09:10:00,
2013-06-02 05:15:00,71.7,66.3,29.98,West,270,3.0,-999.0,83,0.00,,,0.00,Wunderground v.1.15,2013-06-02 09:15:00,
2013-06-02 05:20:00,71.7,66.3,29.98,West,270,3.0,-999.0,83,0.00,,,0.00,Wunderground v.1.15,2013-06-02 09:20:00,
2013-06-02 05:25:00,71.7,66.3,29.98,West,270,3.0,-999.0,83,0.00,,,0.00,Wunderground v.1.15,2013-06-02 09:25:00,
2013-06-02 05:30:00,71.7,66.3,29.98,West,270,3.0,-999.0,83,0.00,,,0.00,Wunderground v.1.15,2013-06-02 09:30:00,
2013-06-02 05:35:00,71.7,66.3,29.98,West,270,3.0,-999.0,83,0.00,,,0.00,Wunderground v.1.15,2013-06-02 09:35:00,
2013-06-02 05:40:00,71.7,66.3,29.98,West,270,3.0,-999.0,83,0.00,,,0.00,Wunderground v.1.15,2013-06-02 09:40:00,
2013-06-02 05:45:00,71.3,66.2,29.97,WSW,248,3.0,-999.0,84,0.00,,,0.00,Wunderground v.1.15,2013-06-02 09:45:00,
2013-06-02 05:50:00,71.3,66.2,29.97,WSW,248,3.0,-999.0,84,0.00,,,0.00,Wunderground v.1.15,2013-06-02 09:50:00,
2013-06-02 05:55:00,71.3,66.2,29.97,WSW,248,3.0,-999.0,84,0.00,,,0.00,Wunderground v.1.15,2013-06-02 09:55:00,
2013-06-02 06:00:00,71.3,66.2,29.97,WSW,248,3.0,-999.0,84,0.00,,,0.00,Wunderground v.1.15,2013-06-02 10:00:00,
2013-06-02 06:05:00,71.3,66.2,29.97,WSW,248,3.0,-999.0,84,0.00,,,0.00,Wunderground v.1.15,2013-06-02 10:05:00,
2013-06-02 06:10:00,71.3,66.2,29.97,WSW,248,3.0,-999.0,84,0.00,,,0.00,Wunderground v.1.15,2013-06-02 10:10:00,
2013-06-02 06:15:00,70.9,66.2,29.98,West,270,3.0,-999.0,85,0.00,,,0.00,Wunderground v.1.15,2013-06-02 10:15:00,
2013-06-02 06:20:00,70.9,66.2,29.98,West,270,3.0,-999.0,85,0.00,,,0.00,Wunderground v.1.15,2013-06-02 10:20:00,
2013-06-02 06:25:00,70.9,66.2,29.98,West,270,3.0,-999.0,85,0.00,,,0.00,Wunderground v.1.15,2013-06-02 10:25:00,
2013-06-02 06:30:00,70.9,66.2,29.98,West,270,3.0,-999.0,85,0.00,,,0.00,Wunderground v.1.15,2013-06-02 10:30:00,
2013-06-02 06:35:00,70.9,66.2,29.98,West,270,3.0,-999.0,85,0.00,,,0.00,Wunderground v.1.15,2013-06-02 10:35:00,
2013-06-02 06:40:00,70.9,66.2,29.98,West,270,3.0,-999.0,85,0.00,,,0.00,Wunderground v.1.15,2013-06-02 10:40:00,
2013-06-02 06:45:00,71.0,66.6,29.99,West,270,2.0,-999.0,86,0.00,,,0.00,Wunderground v.1.15,2013-06-02 10:45:00,
2013-06-02 06:50:00,71.0,66.6,29.99,West,270,2.0,-999.0,86,0.00,,,0.00,Wunderground v.1.15,2013-06-02 10:50:00,
2013-06-02 06:55:00,71.0,66.6,29.99,West,270,2.0,-999.0,86,0.00,,,0.00,Wunderground v.1.15,2013-06-02 10:55:00,
2013-06-02 07:00:00,71.0,66.6,29.99,West,270,2.0,-999.0,86,0.00,,,0.00,Wunderground v.1.15,2013-06-02 11:00:00,
2013-06-02 07:05:00,71.0,66.6,29.99,West,270,2.0,-999.0,86,0.00,,,0.00,Wunderground v.1.15,2013-06-02 11:05:00,
2013-06-02 07:10:00,71.0,66.6,29.99,West,270,2.0,-999.0,86,0.00,,,0.00,Wunderground v.1.15,2013-06-02 11:10:00,
2013-06-02 07:15:00,71.3,67.2,29.99,West,270,2.0,-999.0,87,0.00,,,0.00,Wunderground v.1.15,2013-06-02 11:15:00,
2013-06-02 07:20:00,71.3,67.2,29.99,West,270,2.0,-999.0,87,0.00,,,0.00,Wunderground v.1.15,2013-06-02 11:20:00,
2013-06-02 07:25:00,71.3,67.2,29.99,West,270,2.0,-999.0,87,0.00,,,0.00,Wunderground v.1.15,2013-06-02 11:25:00,
2013-06-02 07:30:00,71.3,67.2,29.99,West,270,2.0,-999.0,87,0.00,,,0.00,Wunderground v.1.15,2013-06-02 11:30:00,
2013-06-02 07:55:00,71.9,67.1,29.99,West,275,2.0,2.0,85,0.00,,,0.00,Wunderground v.1.15,2013-06-02 11:55:00,
2013-06-02 08:00:00,71.9,67.5,29.98,West,265,1.0,1.0,86,0.00,,,0.00,Wunderground v.1.15,2013-06-02 12:00:00,
2013-06-02 08:05:00,72.1,67.7,29.98,SSW,195,1.0,1.0,86,0.00,,,0.00,Wunderground v.1.15,2013-06-02 12:05:00,
2013-06-02 08:10:00,72.3,67.5,29.98,West,259,2.0,2.0,85,0.00,,,0.00,Wunderground v.1.15,2013-06-02 12:10:00,
2013-06-02 08:20:00,72.6,67.8,29.98,WNW,288,2.0,2.0,85,0.00,,,0.00,Wunderground v.1.15,2013-06-02 12:20:00,
2013-06-02 08:25:00,72.8,68.0,29.98,WSW,257,3.0,5.0,85,0.00,,,0.00,Wunderground v.1.15,2013-06-02 12:25:00,
2013-06-02 08:30:00,73.2,68.4,29.98,WNW,283,3.0,6.0,85,0.00,,,0.00,Wunderground v.1.15,2013-06-02 12:30:00,
2013-06-02 08:35:00,73.2,68.1,29.98,WSW,246,4.0,7.0,84,0.00,,,0.00,Wunderground v.1.15,2013-06-02 12:35:00,
2013-06-02 08:40:00,73.4,68.3,29.98,West,270,4.0,7.0,84,0.00,,,0.00,Wunderground v.1.15,2013-06-02 12:40:00,
2013-06-02 08:45:00,73.9,68.4,29.98,West,276,3.0,7.0,83,0.00,,,0.00,Wunderground v.1.15,2013-06-02 12:45:00,
2013-06-02 08:50:00,74.1,68.6,29.97,WNW,286,2.0,7.0,83,0.00,,,0.00,Wunderground v.1.15,2013-06-02 12:50:00,
2013-06-02 08:55:00,74.2,68.7,29.97,WSW,243,2.0,7.0,83,0.00,,,0.00,Wunderground v.1.15,2013-06-02 12:55:00,
2013-06-02 09:00:00,74.0,68.2,29.97,WSW,257,2.0,7.0,82,0.00,,,0.00,Wunderground v.1.15,2013-06-02 13:00:00,
2013-06-02 09:05:00,73.6,67.8,29.98,WSW,254,3.0,7.0,82,0.00,,,0.00,Wunderground v.1.15,2013-06-02 13:05:00,
2013-06-02 09:10:00,73.7,68.2,29.97,WNW,297,4.0,4.0,83,0.00,,,0.00,Wunderground v.1.15,2013-06-02 13:10:00,
2013-06-02 09:15:00,73.6,68.1,29.97,West,268,4.0,4.0,83,0.00,,,0.00,Wunderground v.1.15,2013-06-02 13:15:00,
2013-06-02 09:20:00,73.8,68.0,29.97,WSW,243,3.0,3.0,82,0.00,,,0.00,Wunderground v.1.15,2013-06-02 13:20:00,
2013-06-02 09:25:00,74.0,68.2,29.97,East,81,2.0,3.0,82,0.00,,,0.00,Wunderground v.1.15,2013-06-02 13:25:00,
2013-06-02 09:30:00,74.2,68.7,29.97,West,261,2.0,6.0,83,0.00,,,0.00,Wunderground v.1.15,2013-06-02 13:30:00,
2013-06-02 09:35:00,74.3,68.4,29.97,WSW,254,2.0,6.0,82,0.00,,,0.00,Wunderground v.1.15,2013-06-02 13:35:00,
2013-06-02 09:40:00,74.0,68.2,29.97,West,277,3.0,3.0,82,0.00,,,0.00,Wunderground v.1.15,2013-06-02 13:40:00,
2013-06-02 09:45:00,74.0,68.2,29.97,West,279,3.0,5.0,82,0.00,,,0.00,Wunderground v.1.15,2013-06-02 13:45:00,
2013-06-02 09:50:00,74.0,68.5,29.97,West,281,2.0,2.0,83,0.00,,,0.00,Wunderground v.1.15,2013-06-02 13:50:00,
2013-06-02 09:55:00,74.3,68.8,29.96,ESE,111,2.0,2.0,83,0.00,,,0.00,Wunderground v.1.15,2013-06-02 13:55:00,
2013-06-02 10:00:00,74.8,68.9,29.96,West,275,2.0,2.0,82,0.00,,,0.00,Wunderground v.1.15,2013-06-02 14:00:00,
2013-06-02 10:05:00,75.2,69.0,29.96,WSW,257,2.0,3.0,81,0.00,,,0.00,Wunderground v.1.15,2013-06-02 14:05:00,
2013-06-02 10:10:00,75.5,69.6,29.96,West,276,2.0,2.0,82,0.00,,,0.00,Wunderground v.1.15,2013-06-02 14:10:00,
2013-06-02 10:15:00,75.9,69.3,29.97,West,269,2.0,6.0,80,0.00,,,0.00,Wunderground v.1.15,2013-06-02 14:15:00,
2013-06-02 10:20:00,76.1,69.5,29.97,WSW,245,3.0,3.0,80,0.00,,,0.00,Wunderground v.1.15,2013-06-02 14:20:00,
2013-06-02 10:25:00,76.5,69.5,29.97,WSW,257,3.0,12.0,79,0.00,,,0.00,Wunderground v.1.15,2013-06-02 14:25:00,
2013-06-02 10:30:00,76.6,69.6,29.96,NW,305,2.0,12.0,79,0.00,,,0.00,Wunderground v.1.15,2013-06-02 14:30:00,
2013-06-02 10:35:00,76.6,68.8,29.96,West,265,3.0,12.0,77,0.00,,,0.00,Wunderground v.1.15,2013-06-02 14:35:00,
2013-06-02 10:40:00,77.0,69.6,29.96,ESE,112,3.0,3.0,78,0.00,,,0.00,Wunderground v.1.15,2013-06-02 14:40:00,
2013-06-02 10:50:00,77.8,70.4,29.96,WNW,302,2.0,2.0,78,0.00,,,0.00,Wunderground v.1.15,2013-06-02 14:50:00,
2013-06-02 10:55:00,78.1,70.3,29.97,West,268,2.0,7.0,77,0.00,,,0.00,Wunderground v.1.15,2013-06-02 14:55:00,
2013-06-02 11:00:00,78.2,70.4,29.97,West,279,3.0,12.0,77,0.00,,,0.00,Wunderground v.1.15,2013-06-02 15:00:00,
2013-06-02 11:05:00,78.5,69.5,29.97,West,270,3.0,12.0,74,0.00,,,0.00,Wunderground v.1.15,2013-06-02 15:05:00,
2013-06-02 11:10:00,78.9,70.3,29.97,WNW,288,2.0,2.0,75,0.00,,,0.00,Wunderground v.1.15,2013-06-02 15:10:00,
2013-06-02 11:15:00,78.9,70.7,29.97,SSE,148,2.0,12.0,76,0.00,,,0.00,Wunderground v.1.15,2013-06-02 15:15:00,
2013-06-02 11:20:00,78.6,69.6,29.97,West,279,2.0,12.0,74,0.00,,,0.00,Wunderground v.1.15,2013-06-02 15:20:00,
2013-06-02 11:25:00,77.8,69.2,29.97,WNW,298,2.0,12.0,75,0.00,,,0.00,Wunderground v.1.15,2013-06-02 15:25:00,
2013-06-02 11:30:00,77.5,68.9,29.97,West,281,2.0,2.0,75,0.00,,,0.00,Wunderground v.1.15,2013-06-02 15:30:00,
2013-06-02 11:35:00,77.4,69.2,29.97,West,272,2.0,12.0,76,0.00,,,0.00,Wunderground v.1.15,2013-06-02 15:35:00,
2013-06-02 11:40:00,77.4,69.6,29.98,South,184,2.0,2.0,77,0.00,,,0.00,Wunderground v.1.15,2013-06-02 15:40:00,
2013-06-02 11:45:00,77.6,69.4,29.98,West,264,2.0,3.0,76,0.00,,,0.00,Wunderground v.1.15,2013-06-02 15:45:00,
2013-06-02 11:50:00,77.7,69.5,29.98,NW,317,2.0,12.0,76,0.00,,,0.00,Wunderground v.1.15,2013-06-02 15:50:00,
2013-06-02 11:55:00,77.9,69.7,29.98,West,260,2.0,12.0,76,0.00,,,0.00,Wunderground v.1.15,2013-06-02 15:55:00,
2013-06-02 12:00:00,78.2,70.0,29.98,SW,227,2.0,2.0,76,0.00,,,0.00,Wunderground v.1.15,2013-06-02 16:00:00,
2013-06-02 12:05:00,78.5,69.9,29.97,NNW,344,2.0,12.0,75,0.00,,,0.00,Wunderground v.1.15,2013-06-02 16:05:00,
2013-06-02 12:10:00,79.0,70.4,29.97,West,261,3.0,12.0,75,0.00,,,0.00,Wunderground v.1.15,2013-06-02 16:10:00,
2013-06-02 12:15:00,79.0,70.0,29.97,NW,324,3.0,12.0,74,0.00,,,0.00,Wunderground v.1.15,2013-06-02 16:15:00,
2013-06-02 12:25:00,78.6,70.4,29.98,WNW,298,3.0,12.0,76,0.00,,,0.00,Wunderground v.1.15,2013-06-02 16:25:00,
2013-06-02 12:30:00,78.5,69.9,29.97,West,281,3.0,3.0,75,0.00,,,0.00,Wunderground v.1.15,2013-06-02 16:30:00,
2013-06-02 12:35:00,78.5,69.5,29.98,West,262,2.0,12.0,74,0.00,,,0.00,Wunderground v.1.15,2013-06-02 16:35:00,
2013-06-02 12:40:00,78.5,69.5,29.97,West,278,2.0,2.0,74,0.00,,,0.00,Wunderground v.1.15,2013-06-02 16:40:00,
2013-06-02 12:45:00,78.9,69.9,29.98,WNW,285,2.0,12.0,74,0.00,,,0.00,Wunderground v.1.15,2013-06-02 16:45:00,
2013-06-02 12:50:00,79.2,70.6,29.97,West,260,2.0,12.0,75,0.00,,,0.00,Wunderground v.1.15,2013-06-02 16:50:00,
2013-06-02 13:00:00,79.3,69.9,29.97,West,279,2.0,2.0,73,0.00,,,0.00,Wunderground v.1.15,2013-06-02 17:00:00,
2013-06-02 13:05:00,79.2,69.8,29.98,West,260,1.0,12.0,73,0.00,,,0.00,Wunderground v.1.15,2013-06-02 17:05:00,
2013-06-02 13:10:00,78.9,69.9,29.97,West,280,1.0,12.0,74,0.00,,,0.00,Wunderground v.1.15,2013-06-02 17:10:00,
2013-06-02 13:15:00,78.6,70.0,29.97,West,281,2.0,12.0,75,0.00,,,0.00,Wunderground v.1.15,2013-06-02 17:15:00,
2013-06-02 13:20:00,78.4,70.2,29.97,WNW,288,2.0,12.0,76,0.00,,,0.00,Wunderground v.1.15,2013-06-02 17:20:00,
2013-06-02 13:25:00,78.2,69.6,29.97,WNW,295,3.0,12.0,75,0.00,,,0.00,Wunderground v.1.15,2013-06-02 17:25:00,
2013-06-02 13:30:00,78.0,69.8,29.97,WNW,285,3.0,3.0,76,0.00,,,0.00,Wunderground v.1.15,2013-06-02 17:30:00,
2013-06-02 13:35:00,78.1,70.3,29.97,WNW,282,3.0,12.0,77,0.00,,,0.00,Wunderground v.1.15,2013-06-02 17:35:00,
2013-06-02 13:40:00,78.6,70.8,29.97,WNW,285,2.0,12.0,77,0.00,,,0.00,Wunderground v.1.15,2013-06-02 17:40:00,
2013-06-02 13:45:00,78.7,70.1,29.96,NW,317,2.0,12.0,75,0.00,,,0.00,Wunderground v.1.15,2013-06-02 17:45:00,
2013-06-02 13:50:00,78.4,69.4,29.96,NNE,28,3.0,3.0,74,0.00,,,0.00,Wunderground v.1.15,2013-06-02 17:50:00,
2013-06-02 13:55:00,78.2,69.6,29.96,West,264,3.0,12.0,75,0.00,,,0.00,Wunderground v.1.15,2013-06-02 17:55:00,
2013-06-02 14:00:00,78.2,70.0,29.96,West,276,2.0,12.0,76,0.00,,,0.00,Wunderground v.1.15,2013-06-02 18:00:00,
2013-06-02 14:05:00,78.3,69.7,29.96,WNW,290,2.0,12.0,75,0.00,,,0.00,Wunderground v.1.15,2013-06-02 18:05:00,
2013-06-02 14:10:00,78.5,70.3,29.95,NW,309,3.0,12.0,76,0.00,,,0.00,Wunderground v.1.15,2013-06-02 18:10:00,
2013-06-02 14:15:00,78.9,70.3,29.95,West,279,3.0,12.0,75,0.00,,,0.00,Wunderground v.1.15,2013-06-02 18:15:00,
2013-06-02 14:20:00,79.1,70.1,29.95,WNW,284,3.0,3.0,74,0.00,,,0.00,Wunderground v.1.15,2013-06-02 18:20:00,
2013-06-02 14:25:00,79.3,69.9,29.94,NW,316,3.0,12.0,73,0.00,,,0.00,Wunderground v.1.15,2013-06-02 18:25:00,
2013-06-02 14:30:00,79.8,70.8,29.94,WNW,290,3.0,12.0,74,0.00,,,0.00,Wunderground v.1.15,2013-06-02 18:30:00,
2013-06-02 14:35:00,79.6,69.8,29.94,West,269,3.0,12.0,72,0.00,,,0.00,Wunderground v.1.15,2013-06-02 18:35:00,
2013-06-02 14:40:00,79.1,69.7,29.93,South,184,3.0,3.0,73,0.00,,,0.00,Wunderground v.1.15,2013-06-02 18:40:00,
2013-06-02 14:45:00,79.4,70.4,29.93,WNW,288,3.0,4.0,74,0.00,,,0.00,Wunderground v.1.15,2013-06-02 18:45:00,
2013-06-02 14:50:00,79.7,70.7,29.93,West,275,3.0,12.0,74,0.00,,,0.00,Wunderground v.1.15,2013-06-02 18:50:00,
2013-06-02 14:55:00,79.6,70.2,29.93,West,266,3.0,12.0,73,0.00,,,0.00,Wunderground v.1.15,2013-06-02 18:55:00,
2013-06-02 15:00:00,79.6,70.2,29.93,West,261,2.0,2.0,73,0.00,,,0.00,Wunderground v.1.15,2013-06-02 19:00:00,
2013-06-02 15:05:00,79.6,69.4,29.93,South,178,2.0,4.0,71,0.00,,,0.00,Wunderground v.1.15,2013-06-02 19:05:00,
2013-06-02 15:10:00,79.4,69.6,29.93,West,277,2.0,2.0,72,0.00,,,0.00,Wunderground v.1.15,2013-06-02 19:10:00,
2013-06-02 15:15:00,79.3,69.5,29.92,WNW,294,2.0,3.0,72,0.00,,,0.00,Wunderground v.1.15,2013-06-02 19:15:00,
2013-06-02 15:20:00,79.2,69.4,29.92,West,273,1.0,1.0,72,0.00,,,0.00,Wunderground v.1.15,2013-06-02 19:20:00,
2013-06-02 15:25:00,79.2,69.8,29.92,West,272,1.0,12.0,73,0.00,,,0.00,Wunderground v.1.15,2013-06-02 19:25:00,
2013-06-02 15:30:00,79.3,69.9,29.92,WNW,293,1.0,1.0,73,0.00,,,0.00,Wunderground v.1.15,2013-06-02 19:30:00,
2013-06-02 15:35:00,79.2,69.4,29.92,WSW,258,1.0,3.0,72,0.00,,,0.00,Wunderground v.1.15,2013-06-02 19:35:00,
2013-06-02 15:40:00,79.2,69.8,29.91,West,275,2.0,2.0,73,0.00,,,0.00,Wunderground v.1.15,2013-06-02 19:40:00,
2013-06-02 15:45:00,79.4,70.4,29.91,WNW,284,1.0,12.0,74,0.00,,,0.00,Wunderground v.1.15,2013-06-02 19:45:00,
2013-06-02 15:50:00,79.7,70.3,29.91,West,269,0.0,12.0,73,0.00,,,0.00,Wunderground v.1.15,2013-06-02 19:50:00,
2013-06-02 15:55:00,79.9,70.5,29.90,West,264,0.0,12.0,73,0.00,,,0.00,Wunderground v.1.15,2013-06-02 19:55:00,
2013-06-02 16:00:00,80.0,70.6,29.90,West,276,1.0,1.0,73,0.00,,,0.00,Wunderground v.1.15,2013-06-02 20:00:00,
2013-06-02 16:05:00,80.2,70.8,29.90,WNW,287,1.0,12.0,73,0.00,,,0.00,Wunderground v.1.15,2013-06-02 20:05:00,
2013-06-02 16:10:00,80.3,70.9,29.90,NW,311,0.0,12.0,73,0.00,,,0.00,Wunderground v.1.15,2013-06-02 20:10:00,
2013-06-02 16:15:00,80.5,71.0,29.90,WNW,295,0.0,12.0,73,0.00,,,0.00,Wunderground v.1.15,2013-06-02 20:15:00,
2013-06-02 16:20:00,80.7,70.8,29.90,West,278,1.0,1.0,72,0.00,,,0.00,Wunderground v.1.15,2013-06-02 20:20:00,
2013-06-02 16:25:00,80.9,70.6,29.90,NW,313,1.0,12.0,71,0.00,,,0.00,Wunderground v.1.15,2013-06-02 20:25:00,
2013-06-02 16:30:00,81.4,70.7,29.89,West,266,1.0,1.0,70,0.00,,,0.00,Wunderground v.1.15,2013-06-02 20:30:00,
2013-06-02 16:35:00,82.3,72.4,29.89,West,273,2.0,2.0,72,0.00,,,0.00,Wunderground v.1.15,2013-06-02 20:35:00,
2013-06-02 16:40:00,82.5,70.9,29.89,WNW,288,1.0,12.0,68,0.00,,,0.00,Wunderground v.1.15,2013-06-02 20:40:00,
2013-06-02 16:45:00,81.9,70.3,29.89,SSW,192,1.0,12.0,68,0.00,,,0.00,Wunderground v.1.15,2013-06-02 20:45:00,
2013-06-02 16:50:00,81.6,70.9,29.88,WNW,296,1.0,1.0,70,0.00,,,0.00,Wunderground v.1.15,2013-06-02 20:50:00,
2013-06-02 16:55:00,81.5,70.8,29.88,West,274,1.0,12.0,70,0.00,,,0.00,Wunderground v.1.15,2013-06-02 20:55:00,
2013-06-02 17:00:00,81.3,69.7,29.88,WNW,286,1.0,12.0,68,0.00,,,0.00,Wunderground v.1.15,2013-06-02 21:00:00,
2013-06-02 17:05:00,81.1,70.0,29.88,WSW,239,1.0,12.0,69,0.00,,,0.00,Wunderground v.1.15,2013-06-02 21:05:00,
2013-06-02 17:15:00,80.8,70.1,29.89,West,265,1.0,1.0,70,0.00,,,0.00,Wunderground v.1.15,2013-06-02 21:15:00,
2013-06-02 17:20:00,80.6,69.9,29.89,West,265,0.0,0.0,70,0.00,,,0.00,Wunderground v.1.15,2013-06-02 21:20:00,
2013-06-02 17:25:00,80.6,69.9,29.89,West,265,0.0,0.0,70,0.00,,,0.00,Wunderground v.1.15,2013-06-02 21:25:00,
2013-06-02 17:30:00,80.5,70.2,29.89,West,265,0.0,0.0,71,0.00,,,0.00,Wunderground v.1.15,2013-06-02 21:30:00,
2013-06-02 17:35:00,80.6,69.9,29.89,West,265,0.0,2.0,70,0.00,,,0.00,Wunderground v.1.15,2013-06-02 21:35:00,
2013-06-02 17:40:00,80.4,70.1,29.89,West,265,0.0,0.0,71,0.00,,,0.00,Wunderground v.1.15,2013-06-02 21:40:00,
2013-06-02 17:50:00,80.1,69.8,29.89,West,265,0.0,0.0,71,0.00,,,0.00,Wunderground v.1.15,2013-06-02 21:50:00,
2013-06-02 18:00:00,79.8,70.4,29.89,West,265,0.0,0.0,73,0.00,,,0.00,Wunderground v.1.15,2013-06-02 22:00:00,
2013-06-02 18:05:00,79.5,69.7,29.89,West,265,0.0,4.0,72,0.00,,,0.00,Wunderground v.1.15,2013-06-02 22:05:00,
2013-06-02 18:10:00,79.3,69.9,29.89,West,265,0.0,4.0,73,0.00,,,0.00,Wunderground v.1.15,2013-06-02 22:10:00,
2013-06-02 18:15:00,79.1,70.1,29.89,West,265,0.0,4.0,74,0.00,,,0.00,Wunderground v.1.15,2013-06-02 22:15:00,
2013-06-02 18:20:00,78.8,69.8,29.89,West,265,0.0,4.0,74,0.00,,,0.00,Wunderground v.1.15,2013-06-02 22:20:00,
2013-06-02 18:25:00,78.6,69.6,29.89,West,265,0.0,4.0,74,0.00,,,0.00,Wunderground v.1.15,2013-06-02 22:25:00,
2013-06-02 18:30:00,78.5,69.9,29.89,West,265,0.0,4.0,75,0.00,,,0.00,Wunderground v.1.15,2013-06-02 22:30:00,
2013-06-02 18:35:00,78.3,69.7,29.89,West,265,0.0,4.0,75,0.00,,,0.00,Wunderground v.1.15,2013-06-02 22:35:00,
2013-06-02 18:40:00,78.2,69.6,29.90,WSW,258,0.0,4.0,75,0.00,,,0.00,Wunderground v.1.15,2013-06-02 22:40:00,
2013-06-02 18:45:00,78.1,69.9,29.90,WSW,257,1.0,4.0,76,0.00,,,0.00,Wunderground v.1.15,2013-06-02 22:45:00,
2013-06-02 18:50:00,78.0,69.8,29.90,WSW,241,1.0,4.0,76,0.00,,,0.00,Wunderground v.1.15,2013-06-02 22:50:00,
2013-06-02 18:55:00,78.0,69.8,29.91,West,266,1.0,4.0,76,0.00,,,0.00,Wunderground v.1.15,2013-06-02 22:55:00,
2013-06-02 19:00:00,77.7,69.9,29.92,ESE,112,2.0,2.0,77,0.00,,,0.00,Wunderground v.1.15,2013-06-02 23:00:00,
2013-06-02 19:05:00,76.9,69.5,29.92,ENE,68,2.0,3.0,78,0.00,,,0.00,Wunderground v.1.15,2013-06-02 23:05:00,
2013-06-02 19:10:00,75.2,68.2,29.92,SSW,210,2.0,6.0,79,0.00,,,0.00,Wunderground v.1.15,2013-06-02 23:10:00,
2013-06-02 19:15:00,73.9,68.1,29.92,SW,217,2.0,6.0,82,0.00,,,0.01,Wunderground v.1.15,2013-06-02 23:15:00,
2013-06-02 19:20:00,73.1,68.0,29.92,South,182,1.0,1.0,84,0.09,,,0.02,Wunderground v.1.15,2013-06-02 23:20:00,
2013-06-02 19:25:00,72.4,67.6,29.92,South,182,1.0,4.0,85,0.10,,,0.02,Wunderground v.1.15,2013-06-02 23:25:00,
2013-06-02 19:30:00,72.0,67.6,29.91,SW,223,0.0,4.0,86,0.10,,,0.03,Wunderground v.1.15,2013-06-02 23:30:00,
2013-06-02 19:35:00,71.7,67.6,29.91,South,184,0.0,4.0,87,0.06,,,0.03,Wunderground v.1.15,2013-06-02 23:35:00,
2013-06-02 19:40:00,71.3,67.2,29.91,South,184,0.0,4.0,87,0.05,,,0.04,Wunderground v.1.15,2013-06-02 23:40:00,
2013-06-02 19:45:00,71.1,67.4,29.91,SE,140,0.0,4.0,88,0.05,,,0.04,Wunderground v.1.15,2013-06-02 23:45:00,
2013-06-02 19:50:00,70.9,67.2,29.91,SE,137,0.0,4.0,88,0.07,,,0.05,Wunderground v.1.15,2013-06-02 23:50:00,
2013-06-02 20:00:00,70.6,67.2,29.91,SE,137,0.0,4.0,89,0.04,,,0.05,Wunderground v.1.15,2013-06-03 00:00:00,
2013-06-02 20:05:00,70.4,67.0,29.91,SE,136,0.0,4.0,89,0.00,,,0.05,Wunderground v.1.15,2013-06-03 00:05:00,
2013-06-02 20:10:00,70.3,66.9,29.91,SE,136,0.0,4.0,89,0.00,,,0.05,Wunderground v.1.15,2013-06-03 00:10:00,
2013-06-02 20:15:00,70.2,66.8,29.91,SE,132,0.0,4.0,89,0.00,,,0.05,Wunderground v.1.15,2013-06-03 00:15:00,
2013-06-02 20:20:00,70.1,66.7,29.91,SE,132,0.0,4.0,89,0.00,,,0.05,Wunderground v.1.15,2013-06-03 00:20:00,
2013-06-02 20:25:00,70.0,66.6,29.91,SE,132,0.0,4.0,89,0.00,,,0.05,Wunderground v.1.15,2013-06-03 00:25:00,
2013-06-02 20:30:00,70.0,66.9,29.91,SE,132,0.0,4.0,90,0.00,,,0.05,Wunderground v.1.15,2013-06-03 00:30:00,
2013-06-02 20:35:00,69.9,66.8,29.90,SE,132,0.0,4.0,90,0.00,,,0.06,Wunderground v.1.15,2013-06-03 00:35:00,
2013-06-02 20:45:00,69.8,66.7,29.90,SE,132,0.0,4.0,90,0.00,,,0.06,Wunderground v.1.15,2013-06-03 00:45:00,
2013-06-02 20:55:00,69.7,66.6,29.90,SE,132,0.0,4.0,90,0.00,,,0.06,Wunderground v.1.15,2013-06-03 00:55:00,
2013-06-02 21:00:00,69.6,66.5,29.90,SE,132,0.0,4.0,90,0.00,,,0.06,Wunderground v.1.15,2013-06-03 01:00:00,
2013-06-02 21:05:00,69.6,66.9,29.90,SE,132,0.0,4.0,91,0.00,,,0.06,Wunderground v.1.15,2013-06-03 01:05:00,
2013-06-02 21:10:00,69.7,67.0,29.89,SE,132,0.0,4.0,91,0.00,,,0.06,Wunderground v.1.15,2013-06-03 01:10:00,
2013-06-02 21:15:00,69.6,66.9,29.89,SE,132,0.0,4.0,91,0.00,,,0.06,Wunderground v.1.15,2013-06-03 01:15:00,
2013-06-02 21:20:00,69.7,67.0,29.89,SE,132,0.0,4.0,91,0.00,,,0.06,Wunderground v.1.15,2013-06-03 01:20:00,
2013-06-02 21:25:00,69.7,67.0,29.89,SE,132,0.0,4.0,91,0.00,,,0.06,Wunderground v.1.15,2013-06-03 01:25:00,
2013-06-02 21:30:00,69.6,66.9,29.90,SE,132,0.0,4.0,91,0.00,,,0.06,Wunderground v.1.15,2013-06-03 01:30:00,
2013-06-02 21:35:00,69.6,67.2,29.90,SE,132,0.0,4.0,92,0.00,,,0.06,Wunderground v.1.15,2013-06-03 01:35:00,
2013-06-02 21:40:00,69.5,67.1,29.91,SE,132,0.0,4.0,92,0.00,,,0.07,Wunderground v.1.15,2013-06-03 01:40:00,
2013-06-02 21:45:00,69.5,67.1,29.91,SE,132,0.0,4.0,92,0.00,,,0.07,Wunderground v.1.15,2013-06-03 01:45:00,
2013-06-02 21:50:00,69.4,67.0,29.91,SE,132,0.0,4.0,92,0.08,,,0.08,Wunderground v.1.15,2013-06-03 01:50:00,
2013-06-02 21:55:00,69.4,67.0,29.91,SE,132,0.0,4.0,92,0.08,,,0.08,Wunderground v.1.15,2013-06-03 01:55:00,
2013-06-02 22:00:00,69.3,66.9,29.91,SE,132,0.0,4.0,92,0.05,,,0.08,Wunderground v.1.15,2013-06-03 02:00:00,
2013-06-02 22:05:00,69.3,66.9,29.92,SE,132,0.0,4.0,92,0.00,,,0.09,Wunderground v.1.15,2013-06-03 02:05:00,
2013-06-02 22:10:00,69.3,66.9,29.91,SE,132,0.0,4.0,92,0.00,,,0.09,Wunderground v.1.15,2013-06-03 02:10:00,
2013-06-02 22:15:00,69.3,67.2,29.91,SE,132,0.0,4.0,93,0.07,,,0.10,Wunderground v.1.15,2013-06-03 02:15:00,
2013-06-02 22:20:00,69.4,67.3,29.91,SE,132,0.0,4.0,93,0.07,,,0.10,Wunderground v.1.15,2013-06-03 02:20:00,
2013-06-02 22:25:00,69.5,67.4,29.92,SE,132,0.0,4.0,93,0.05,,,0.11,Wunderground v.1.15,2013-06-03 02:25:00,
2013-06-02 22:30:00,69.6,67.5,29.92,SE,132,0.0,4.0,93,0.05,,,0.11,Wunderground v.1.15,2013-06-03 02:30:00,
2013-06-02 23:00:00,69.9,67.8,29.92,ESE,113,0.0,-999.0,93,0.03,,,0.11,Wunderground v.1.15,2013-06-03 03:00:00,
2013-06-02 23:05:00,69.9,67.8,29.92,ESE,113,0.0,-999.0,93,0.03,,,0.11,Wunderground v.1.15,2013-06-03 03:05:00,
2013-06-02 23:10:00,69.9,67.8,29.92,ESE,113,0.0,-999.0,93,0.03,,,0.11,Wunderground v.1.15,2013-06-03 03:10:00,
2013-06-02 23:15:00,70.1,68.3,29.91,ENE,68,0.0,-999.0,94,0.00,,,0.11,Wunderground v.1.15,2013-06-03 03:15:00,
2013-06-02 23:20:00,70.1,68.3,29.91,ENE,68,0.0,-999.0,94,0.00,,,0.11,Wunderground v.1.15,2013-06-03 03:20:00,
2013-06-02 23:25:00,70.1,68.3,29.91,ENE,68,0.0,-999.0,94,0.00,,,0.11,Wunderground v.1.15,2013-06-03 03:25:00,
2013-06-02 23:30:00,70.1,68.3,29.91,ENE,68,0.0,-999.0,94,0.00,,,0.11,Wunderground v.1.15,2013-06-03 03:30:00,
2013-06-02 23:35:00,70.1,68.3,29.91,ENE,68,0.0,-999.0,94,0.00,,,0.11,Wunderground v.1.15,2013-06-03 03:35:00,
2013-06-02 23:40:00,70.1,68.3,29.91,ENE,68,0.0,-999.0,94,0.00,,,0.11,Wunderground v.1.15,2013-06-03 03:40:00,
2013-06-02 23:45:00,70.0,68.2,29.90,ENE,68,0.0,-999.0,94,0.00,,,0.11,Wunderground v.1.15,2013-06-03 03:45:00,
2013-06-02 23:50:00,70.0,68.2,29.90,ENE,68,0.0,-999.0,94,0.00,,,0.11,Wunderground v.1.15,2013-06-03 03:50:00,
2013-06-02 23:55:00,70.0,68.2,29.90,ENE,68,0.0,-999.0,94,0.00,,,0.11,Wunderground v.1.15,2013-06-03 03:55:00,